Location: Angwan Shehu
(11.2514°N, 7.4613°E)
Time: 00:13:58
(UTC+00:00)

Cosmos 2034 Rocket - Pass Details

Date: 14 November 2019
Orbit: 959 x 1000 km, 82.9° (Epoch: 14 December)

Event Time Altitude Azimuth Distance (km) Brightness Sun altitude
Rises 18:20:41 0° 358° (N) 3,708 6.9 -19.0°
Reaches altitude 10° 18:23:12 10° 359° (N) 2,761 6.2 -19.6°
Maximum altitude 18:29:34 83° 87° (E) 1,009 3.9 -21.1°
Drops below altitude 10° 18:35:55 10° 174° (S) 2,758 6.5 -22.6°
Sets 18:38:26 0° 175° (S) 3,704 7.2 -23.2°
